Temperature
20 19 18 18 18 18 18 18 18 18 17 17 17 17 17 17 17 17 17 17 17 17 17 17 16 16 16 16 16 16 16 16 15 15 15 15 15 15 15 15 15 15 15
21 19 18 18 18 18 18 18 18 17 17 17 17 17 17 17 17 17 17 17 17 17 17 16 16 16 16 16 16 16 16 16 15 15 15 15 15 15 15 15 16 15 15
20 19 18 18 18 18 18 18 17 17 17 17 17 17 17 17 17 17 17 17 17 17 16 16 16 16 16 16 16 16 16 16 16 15 16 15 15 15 15 15 15 15 15
20 19 18 18 18 18 18 17 17 17 16 16 16 16 16 16 17 17 17 17 17 17 16 16 16 16 16 16 16 16 16 16 16 15 15 15 15 15 15 15 15 15 15
19 19 18 18 17 17 17 17 17 16 16 16 16 16 16 16 16 16 16 16 16 16 16 16 16 16 16 16 16 16 16 16 15 15 15 15 15 15 15 15 15 15 15
19 19 18 18 17 17 17 17 16 16 16 16 16 16 16 16 16 16 16 16 16 17 17 16 16 16 16 16 15 16 16 16 15 15 15 15 15 15 15 15 15 15 15
19 18 18 18 17 17 17 17 16 16 16 16 16 16 16 16 16 16 16 16 16 16 16 16 16 16 16 15 15 16 16 15 15 15 15 15 15 15 15 15 15 15 15
19 18 18 17 17 17 17 16 16 16 16 16 16 16 16 16 16 16 16 16 16 16 16 16 16 16 16 15 15 15 16 16 15 15 15 15 15 15 15 15 15 14 14
18 18 18 17 17 17 16 16 16 16 16 16 16 16 16 16 16 16 16 16 16 16 16 16 16 16 16 15 15 15 15 15 15 15 15 15 15 15 15 15 14 14 14
16 17 17 17 17 16 16 16 16 16 16 16 16 16 15 16 16 16 16 16 16 16 16 16 16 16 16 15 15 15 15 15 15 15 15 15 15 15 15 14 14 14 14
15 16 16 16 16 16 16 16 16 16 15 15 15 15 15 15 15 15 16 16 16 16 16 16 16 16 16 15 15 15 15 15 15 15 15 15 15 15 14 14 14 14 14
15 15 15 15 16 16 16 16 15 15 15 15 15 15 15 15 15 15 16 16 16 16 16 16 16 16 16 15 15 15 15 15 15 15 15 14 14 14 14 14 14 14 14
15 15 15 15 15 15 15 15 15 15 15 15 15 15 15 15 15 15 15 15 16 16 16 16 16 16 16 15 15 15 15 15 15 15 14 14 14 14 14 14 14 14 13
14 14 14 15 15 15 15 15 15 15 15 14 14 15 15 15 15 15 15 15 16 16 16 16 16 16 15 15 15 15 15 15 15 14 14 14 14 14 14 14 14 14 14
14 14 14 14 14 14 14 14 14 15 15 15 14 14 15 15 15 15 15 15 16 16 16 16 16 16 15 15 15 15 14 14 14 14 14 14 14 14 14 14 14 14 14
13 14 14 14 14 14 14 14 14 14 14 14 15 14 15 15 15 15 15 15 16 16 16 16 16 15 15 15 15 15 14 14 14 14 14 14 14 14 14 14 14 14 13
13 13 13 13 13 14 14 14 14 14 14 14 14 14 14 15 15 15 15 15 15 15 15 15 15 15 15 15 15 14 14 14 14 14 14 14 14 14 14 14 14 13 13
13 13 13 13 13 13 13 13 13 14 14 14 14 14 14 14 15 15 15 15 15 15 15 15 15 15 15 15 15 14 14 14 14 14 14 14 14 14 14 13 13 13 13
12 13 13 13 13 13 13 13 13 13 13 14 14 14 14 14 14 15 15 15 15 15 15 15 15 15 15 15 14 14 14 14 14 14 14 14 14 14 13 13 13 13 13
12 12 12 12 12 13 13 12 13 13 13 13 14 14 14 14 14 14 14 15 15 15 15 15 15 15 14 14 14 14 14 14 14 14 14 14 14 13 13 13 13 13 13
12 12 12 12 12 12 12 12 12 12 13 13 13 13 13 13 14 14 14 14 14 15 15 15 15 14 14 14 14 13 13 13 14 14 13 13 13 13 13 13 13 13 12
11 12 12 12 12 12 12 12 13 13 13 13 13 13 13 13 13 14 14 14 14 15 15 15 14 14 14 14 13 13 13 13 13 13 13 13 13 13 13 13 12 12 12
11 11 11 12 12 12 12 12 12 12 12 12 12 13 13 13 13 14 14 14 14 14 14 14 14 14 14 14 13 13 13 13 13 13 13 13 13 13 12 12 12 12 11
11 11 11 11 12 12 12 12 12 12 12 12 12 12 12 12 13 13 13 14 14 14 14 14 14 14 14 14 13 13 13 13 13 13 13 13 13 12 12 12 12 11 11
10 11 11 11 11 11 12 12 12 12 12 12 12 12 12 12 12 13 13 13 13 13 14 14 14 14 14 14 13 13 13 13 13 13 12 12 12 12 12 12 11 11 11
10 10 11 11 11 11 11 11 11 11 12 12 12 12 12 12 12 12 12 13 13 13 13 13 13 13 13 13 13 13 13 13 13 13 13 12 12 12 12 11 11 11 10
Wind_Speed
9 13 22 23 22 21 21 21 21 21 20 20 20 20 20 21 21 21 20 20 19 19 19 19 20 20 20 20 20 19 19 19 18 18 17 17 18 17 17 16 15 15 16
14 18 23 22 22 22 21 21 21 21 20 20 20 20 20 20 21 21 20 20 19 19 19 19 19 20 20 19 19 19 18 17 17 17 17 17 17 17 16 16 15 14 15
16 19 22 22 21 21 21 21 21 21 21 21 21 21 21 21 21 21 20 20 19 19 19 19 19 19 19 18 18 17 16 15 15 15 14 14 15 16 16 15 15 15 15
17 18 20 21 21 21 21 21 21 21 21 21 21 21 21 21 21 21 20 20 20 19 19 19 19 18 17 17 15 14 13 12 13 13 13 12 13 14 14 14 14 14 14
15 17 20 22 21 20 20 20 21 21 21 21 21 21 21 21 21 21 20 20 20 20 19 18 17 16 16 14 13 13 12 14 15 14 13 12 12 14 14 14 14 13 13
13 14 19 23 22 20 20 20 21 21 21 21 22 22 22 22 22 21 20 20 20 20 19 18 16 15 14 13 12 12 13 15 15 14 12 11 11 12 13 12 13 13 13
13 13 19 23 22 21 20 20 21 21 21 22 22 22 22 22 22 21 21 21 21 20 18 17 16 14 13 11 11 11 12 14 14 13 11 9 10 11 11 11 11 11 11
13 12 17 21 21 20 20 20 21 21 21 22 22 22 23 23 23 22 22 22 21 19 18 17 15 14 12 10 10 10 11 12 11 11 10 9 10 10 10 9 9 9 9
8 10 11 16 18 19 18 19 20 21 21 22 22 23 23 23 23 23 23 22 21 19 18 16 15 13 11 9 8 8 9 11 12 10 9 8 9 9 8 8 7 7 7
5 7 9 11 14 15 16 17 18 19 21 21 22 22 22 23 23 24 23 22 20 19 18 16 15 13 10 8 6 7 8 10 9 9 9 8 8 8 7 6 5 5 5
4 5 7 8 9 12 14 16 16 18 19 20 20 22 21 19 20 21 21 21 20 19 17 16 14 12 10 7 5 5 6 7 8 9 9 9 8 7 6 5 4 3 3
4 5 5 7 9 9 12 13 13 14 15 16 16 19 18 17 17 18 20 21 20 19 17 16 14 11 9 6 4 3 3 5 7 8 9 10 8 7 5 4 3 2 1
4 5 6 6 7 8 6 8 8 10 11 14 16 18 17 15 15 15 15 16 17 17 14 13 12 10 8 6 4 3 3 4 6 8 10 11 9 7 5 4 3 2 1
5 6 7 6 7 7 6 6 6 7 8 9 14 18 16 10 9 11 10 12 13 12 11 10 9 8 7 7 6 5 4 5 7 9 10 11 10 8 6 4 3 2 2
6 6 7 7 8 8 7 7 7 7 9 12 14 17 17 10 10 9 9 11 11 12 10 8 7 7 6 6 6 6 5 6 7 9 9 11 10 8 6 5 4 3 3
7 7 6 8 8 9 8 8 8 8 10 12 13 16 18 14 11 10 9 8 10 12 12 10 8 6 5 5 5 6 6 6 6 8 9 10 10 8 7 5 4 3 3
8 8 8 9 8 8 9 8 8 8 10 10 12 17 19 17 15 12 10 9 10 13 12 9 7 5 4 4 5 4 4 5 5 7 8 8 9 8 7 6 4 3 2
9 8 9 9 9 9 9 9 6 7 9 9 12 16 18 20 19 13 10 10 12 12 9 6 5 5 4 4 4 3 2 3 4 5 6 8 8 7 6 6 4 2 2
10 10 10 10 10 10 9 8 7 6 8 9 11 12 16 19 21 14 10 9 13 8 6 8 5 5 5 4 4 3 2 2 2 4 5 6 7 7 6 5 4 2 1
9 9 10 10 10 9 7 6 6 6 7 7 9 11 16 17 19 15 10 10 11 8 8 7 6 5 4 5 3 2 2 2 2 3 4 5 6 7 6 5 4 3 2
8 9 10 11 11 9 6 7 8 8 7 7 8 12 15 16 17 14 11 11 11 10 10 10 6 6 4 4 3 1 1 1 2 2 3 3 4 6 7 6 5 5 4
9 9 10 11 11 10 8 7 6 7 6 7 8 10 13 15 16 14 13 12 11 9 10 9 7 5 4 4 4 3 1 2 1 1 2 3 3 4 5 6 6 6 6
8 9 10 10 10 10 10 7 6 5 4 6 8 9 10 12 14 13 13 12 11 10 10 10 9 8 6 4 4 4 4 4 2 1 1 2 4 3 3 5 6 7 7
7 8 8 8 9 10 10 9 11 10 8 8 9 8 9 11 11 12 12 11 11 9 10 9 8 6 7 6 3 3 3 4 4 2 1 1 2 3 4 4 5 7 8
4 5 7 7 7 8 9 11 12 10 8 7 8 10 10 9 10 10 10 10 11 9 9 10 8 8 6 6 5 4 3 2 2 3 3 2 1 2 3 4 5 6 8
1 2 5 6 6 6 7 9 10 11 11 11 11 11 10 8 8 9 9 9 9 9 9 10 9 10 8 7 6 5 5 4 4 4 4 4 3 2 2 3 4 5 8
Wind_Direction
171 169 171 166 162 158 155 153 150 147 144 141 138 135 132 131 130 129 128 127 126 124 121 117 114 111 109 108 106 102 99 94 89 86 82 82 83 83 79 76 72 67 70
160 166 169 166 164 161 159 157 155 152 149 147 144 141 139 137 136 134 132 131 129 126 123 120 117 115 113 110 107 105 101 96 92 87 82 82 84 84 81 78 77 75 72
154 163 167 167 165 163 161 160 159 156 155 153 151 148 146 143 141 139 137 135 132 128 125 122 119 117 115 113 111 107 104 100 97 91 85 83 85 85 82 79 76 75 73
155 161 166 168 166 166 164 163 163 162 161 159 157 155 152 149 147 144 142 138 134 130 125 123 121 120 118 116 111 106 102 104 104 96 86 82 85 85 83 80 78 76 74
155 161 166 167 168 168 167 167 167 167 167 165 163 161 158 154 151 149 145 139 134 130 128 126 125 125 122 118 111 101 96 105 109 102 94 88 87 87 83 80 79 77 75
155 161 165 167 169 170 170 170 171 171 171 171 168 166 162 158 155 152 146 140 135 132 131 130 129 128 126 120 109 98 101 112 113 107 100 95 94 92 88 84 80 77 75
159 162 167 169 171 172 172 172 173 174 175 175 172 169 165 161 158 152 145 141 138 136 136 135 134 133 130 122 107 97 104 118 120 113 109 102 101 97 92 88 83 79 76
163 164 168 171 172 173 174 174 175 176 176 176 173 171 167 163 158 153 148 145 142 142 141 140 139 138 135 127 110 97 105 119 123 119 117 112 109 103 98 93 88 84 81
164 165 166 170 170 171 173 176 177 178 177 176 174 171 168 163 159 155 151 148 147 147 146 145 144 144 142 133 116 99 106 125 130 130 127 126 120 113 107 101 95 88 85
165 170 171 170 171 170 171 173 175 177 177 177 173 169 165 162 159 155 153 151 150 150 150 149 148 149 148 141 124 103 107 127 138 143 142 142 134 124 117 111 103 93 87
176 182 178 173 172 170 170 174 174 174 175 175 171 165 161 161 157 155 154 153 152 153 154 154 153 155 153 151 140 114 111 130 148 155 158 157 151 142 135 128 118 110 97
204 198 189 181 174 172 177 171 172 175 174 171 168 164 161 157 156 156 156 155 155 155 157 158 157 158 159 164 165 138 127 147 163 171 174 171 166 161 158 156 153 148 133
227 210 197 191 178 173 177 170 170 169 168 167 164 163 159 155 155 154 156 157 156 157 159 161 159 165 172 182 193 193 185 174 182 189 188 183 180 180 179 183 191 202 218
245 220 200 191 186 177 172 174 174 169 168 169 169 164 162 159 158 160 162 162 161 163 163 165 168 176 188 199 205 210 213 191 190 192 195 194 192 193 195 200 208 231 252
239 224 203 191 191 180 176 181 182 180 175 173 172 172 168 166 166 165 166 166 167 167 170 173 177 182 192 206 216 214 215 204 191 191 196 199 198 198 200 205 221 241 261
239 223 203 192 195 186 180 186 185 183 181 176 176 178 173 172 169 170 170 171 174 176 179 181 184 183 192 201 212 213 211 201 193 193 198 201 203 204 206 213 227 246 264
226 217 204 194 189 189 185 189 190 187 183 183 180 181 178 175 173 173 174 176 180 181 181 180 184 183 188 196 208 205 194 193 190 193 196 198 204 209 212 214 224 237 260
214 210 209 200 189 188 188 188 188 189 187 187 184 183 182 179 176 174 176 179 180 179 178 176 177 178 188 187 188 192 182 181 190 188 185 191 194 198 206 211 210 223 256
211 205 204 196 188 188 189 188 190 189 192 187 185 183 184 182 178 175 178 179 177 177 179 184 178 173 177 179 180 185 192 194 191 180 170 178 182 183 185 190 194 203 231
208 201 198 193 187 184 186 188 193 194 192 187 188 186 182 183 179 175 176 176 175 176 180 180 172 172 170 169 165 172 208 214 192 182 173 166 166 169 169 163 159 160 164
204 199 195 191 187 184 187 190 195 197 193 191 193 188 183 181 179 175 177 177 178 182 184 176 164 167 168 151 129 117 340 303 216 203 170 156 155 161 157 156 152 142 131
204 201 199 197 189 187 193 190 189 181 186 191 193 190 183 180 180 178 177 180 180 179 177 175 161 159 166 163 150 141 208 318 309 209 177 169 165 150 146 152 148 139 130
205 201 204 199 193 189 189 184 177 169 168 186 188 188 184 181 182 180 179 179 180 179 182 182 175 167 173 181 173 159 169 210 232 304 217 179 171 161 152 147 148 144 139
210 204 200 195 194 192 189 185 186 189 189 190 183 181 184 184 183 182 179 179 181 182 183 185 182 175 168 179 188 193 180 161 166 200 291 228 181 176 172 156 147 146 144
202 199 195 191 190 192 192 192 193 192 186 176 173 173 181 186 185 182 181 179 181 184 185 184 182 181 179 180 179 171 177 183 172 168 209 227 219 204 179 167 155 150 149
124 170 167 169 178 183 186 186 186 179 173 171 173 178 179 181 184 183 180 181 184 186 188 190 190 189 190 187 188 181 174 177 190 183 198 206 209 212 184 172 169 162 158
Height
1486 1489 1491 1494 1498 1500 1503 1505 1507 1510 1512 1515 1517 1519 1521 1523 1525 1526 1528 1529 1530 1531 1533 1534 1535 1536 1537 1538 1539 1539 1540 1541 1541 1541 1542 1542 1542 1542 1542 1542 1542 1542 1542
1484 1488 1491 1494 1497 1500 1502 1505 1507 1509 1512 1514 1517 1519 1521 1523 1525 1527 1528 1530 1531 1533 1534 1535 1536 1538 1539 1540 1541 1541 1542 1542 1543 1543 1544 1544 1544 1544 1544 1544 1544 1544 1543
1484 1487 1490 1493 1496 1499 1502 1504 1506 1509 1512 1514 1517 1519 1521 1524 1525 1527 1529 1530 1532 1534 1535 1537 1538 1539 1540 1541 1542 1543 1544 1544 1545 1545 1546 1546 1546 1546 1546 1546 1545 1545 1545
1484 1487 1489 1493 1496 1499 1501 1503 1506 1509 1511 1514 1517 1519 1521 1524 1526 1528 1529 1531 1533 1535 1537 1538 1540 1541 1542 1543 1544 1545 1545 1546 1547 1547 1547 1548 1548 1548 1547 1547 1547 1547 1546
1484 1487 1489 1493 1496 1498 1501 1503 1505 1508 1511 1514 1516 1519 1521 1524 1526 1528 1530 1532 1534 1536 1538 1539 1541 1543 1544 1545 1546 1546 1547 1548 1548 1549 1549 1549 1549 1549 1549 1549 1549 1548 1548
1484 1486 1488 1492 1495 1498 1500 1503 1505 1507 1510 1513 1516 1518 1521 1523 1526 1528 1530 1532 1534 1536 1538 1540 1542 1544 1545 1546 1547 1548 1548 1549 1550 1550 1551 1551 1551 1551 1551 1550 1550 1550 1549
1483 1486 1488 1491 1493 1497 1499 1502 1504 1507 1509 1512 1515 1518 1521 1523 1525 1528 1530 1532 1535 1537 1539 1541 1543 1545 1546 1547 1548 1549 1550 1551 1551 1552 1552 1552 1552 1552 1552 1552 1551 1551 1550
1483 1485 1487 1490 1492 1495 1498 1501 1503 1506 1509 1511 1514 1517 1520 1522 1525 1528 1530 1533 1535 1537 1540 1542 1544 1546 1547 1548 1549 1550 1551 1552 1552 1553 1553 1553 1553 1553 1553 1553 1552 1552 1552
1483 1484 1486 1488 1491 1494 1497 1499 1502 1505 1508 1511 1513 1516 1519 1522 1524 1527 1530 1532 1535 1537 1540 1542 1544 1546 1548 1549 1550 1551 1552 1553 1553 1554 1554 1554 1554 1554 1554 1554 1553 1553 1552
1482 1484 1485 1486 1489 1492 1495 1498 1500 1503 1506 1509 1512 1515 1518 1521 1524 1527 1529 1532 1535 1537 1540 1542 1544 1546 1548 1550 1551 1552 1553 1553 1554 1555 1555 1555 1555 1555 1555 1554 1554 1553 1553
1481 1482 1484 1485 1487 1490 1492 1495 1498 1501 1504 1508 1511 1514 1517 1520 1523 1526 1529 1531 1534 1537 1540 1542 1544 1546 1548 1550 1551 1552 1553 1554 1555 1555 1555 1555 1555 1555 1555 1555 1554 1554 1553
1478 1480 1481 1483 1485 1487 1490 1492 1496 1499 1502 1505 1509 1512 1515 1518 1521 1525 1528 1531 1534 1537 1539 1542 1544 1546 1548 1550 1551 1552 1553 1554 1554 1555 1555 1555 1555 1555 1555 1555 1554 1554 1553
1475 1476 1478 1480 1482 1484 1487 1490 1492 1496 1499 1502 1506 1509 1513 1516 1520 1523 1526 1529 1532 1535 1538 1541 1543 1545 1547 1549 1550 1552 1552 1553 1554 1555 1555 1555 1555 1555 1555 1554 1554 1553 1553
1471 1473 1475 1477 1480 1482 1484 1486 1489 1492 1496 1499 1502 1506 1510 1513 1517 1520 1524 1527 1530 1534 1537 1539 1542 1544 1546 1548 1550 1551 1552 1553 1553 1554 1554 1555 1555 1555 1554 1554 1553 1553 1552
1467 1469 1471 1473 1476 1478 1481 1484 1486 1489 1492 1496 1499 1503 1507 1510 1514 1518 1521 1525 1528 1532 1535 1538 1541 1543 1545 1547 1548 1550 1551 1551 1552 1553 1553 1554 1554 1554 1553 1553 1552 1552 1551
1462 1465 1467 1469 1472 1474 1477 1480 1483 1486 1489 1492 1496 1499 1503 1507 1511 1515 1519 1522 1526 1530 1533 1536 1539 1541 1544 1545 1547 1548 1549 1550 1551 1551 1552 1552 1552 1552 1552 1552 1551 1551 1550
1457 1459 1462 1464 1467 1470 1472 1476 1479 1482 1485 1488 1491 1496 1500 1504 1508 1512 1516 1520 1524 1528 1531 1534 1537 1540 1542 1543 1545 1546 1547 1548 1549 1550 1550 1551 1551 1551 1551 1550 1550 1549 1548
1452 1454 1456 1459 1462 1465 1468 1472 1475 1478 1481 1484 1487 1491 1496 1500 1504 1509 1513 1517 1521 1525 1528 1531 1534 1537 1539 1541 1543 1544 1545 1546 1547 1548 1548 1549 1549 1549 1549 1548 1548 1547 1547
1445 1448 1451 1453 1456 1460 1463 1466 1470 1473 1476 1480 1483 1487 1491 1496 1500 1505 1509 1514 1518 1522 1525 1529 1532 1534 1536 1538 1540 1542 1543 1544 1545 1545 1546 1546 1546 1546 1546 1546 1546 1545 1545
1439 1442 1445 1448 1451 1455 1458 1461 1465 1468 1471 1475 1479 1483 1487 1492 1496 1500 1505 1510 1514 1518 1522 1525 1528 1531 1534 1536 1538 1539 1541 1542 1542 1543 1543 1543 1543 1544 1544 1544 1543 1543 1543
1433 1436 1439 1442 1446 1449 1453 1456 1459 1462 1466 1470 1474 1478 1483 1487 1492 1496 1501 1506 1510 1514 1518 1521 1524 1528 1530 1533 1535 1536 1537 1538 1539 1539 1540 1540 1540 1541 1541 1541 1541 1541 1540
1427 1430 1434 1437 1440 1443 1448 1451 1454 1457 1461 1465 1469 1473 1478 1482 1487 1491 1496 1501 1505 1510 1514 1517 1520 1523 1526 1529 1531 1533 1534 1536 1535 1536 1536 1537 1537 1537 1537 1538 1538 1538 1537
1422 1425 1429 1431 1434 1438 1442 1446 1449 1453 1457 1461 1464 1469 1473 1478 1483 1488 1492 1497 1501 1505 1509 1512 1516 1519 1521 1524 1527 1529 1530 1530 1531 1532 1532 1533 1534 1534 1534 1534 1534 1534 1534
1417 1420 1423 1426 1429 1433 1437 1439 1442 1446 1450 1454 1459 1464 1469 1474 1479 1484 1488 1493 1497 1501 1505 1508 1511 1515 1517 1519 1522 1524 1526 1526 1527 1527 1528 1529 1530 1530 1530 1531 1531 1531 1531
1413 1415 1418 1422 1424 1428 1431 1434 1438 1442 1446 1450 1455 1461 1465 1470 1475 1480 1484 1489 1493 1497 1501 1504 1507 1510 1512 1514 1516 1518 1520 1521 1522 1523 1523 1525 1525 1526 1526 1527 1527 1527 1527
1411 1412 1415 1418 1421 1425 1428 1430 1433 1437 1441 1445 1451 1456 1462 1466 1471 1476 1480 1485 1489 1493 1496 1500 1502 1505 1507 1509 1512 1513 1514 1516 1516 1517 1518 1519 1520 1521 1521 1522 1522 1522 1522